This demonstration page uses our WeatherBlox Daily Observations layout. Learn more.

Left ArrowRight Arrow

Hourly Observations for July 23, 2021

Temp ( °F °C ) Dew Point ( °F °C ) Humidity (%) Winds ( mph kmh ) Pressure ( in mb ) Visibility ( mi km ) Precip ( " mm )
12:56 am 00:56 Clear 69 20.6 62 16.7 78 78 SSE 8 13 29.98 1015 10 16 0.00 0.00
1:56 am 01:56 Clear 68 20 62 16.7 81 81 S 9 15 29.96 1015 10 16 0.00 0.00
2:56 am 02:56 Clear 68 20 62 16.7 81 81 S 9 15 29.96 1014 10 16 0.00 0.00
3:56 am 03:56 Clear 68 20 61 16.1 78 78 S 9 15 29.96 1014 10 16 0.00 0.00
4:56 am 04:56 Clear 66 18.9 61 16.1 84 84 S 9 15 29.95 1014 10 16 0.00 0.00
5:56 am 05:56 Clear 65 18.3 61 16.1 87 87 S 9 15 29.95 1014 10 16 0.00 0.00
6:56 am 06:56 Sunny 66 18.9 62 16.7 87 87 S 9 15 29.97 1015 10 16 0.00 0.00
7:56 am 07:56 Sunny 70 21.1 63 17.2 79 79 S 10 17 29.97 1015 10 16 0.00 0.00
8:56 am 08:56 Sunny 74 23.3 65 18.3 74 74 SSW 13 20 29.98 1015 10 16 0.00 0.00
9:56 am 09:56 Sunny 78 25.6 66 18.9 67 67 SSW 14 22 29.98 1015 10 16 0.00 0.00
10:56 am 10:56 Sunny 81 27.2 66 18.9 61 61 SSW 15 24 29.97 1015 10 16 0.00 0.00
11:56 am 11:56 Hazy 83 28.3 68 20 61 61 S 12 19 29.97 1015 6 10 0.00 0.00
12:56 pm 12:56 Sunny 86 30 70 21.1 59 59 S 13 20 29.96 1014 10 16 0.00 0.00
1:56 pm 13:56 Sunny 88 31.1 70 21.1 55 55 S 14 22 29.95 1014 10 16 0.00 0.00
2:56 pm 14:56 Sunny 90 32.2 70 21.1 52 52 S 14 22 29.93 1013 10 16 0.00 0.00
3:56 pm 15:56 Sunny 91 32.8 67 19.4 45 45 S 15 24 29.92 1013 10 16 0.00 0.00
4:56 pm 16:56 Sunny 92 33.3 69 20.6 47 47 S 12 19 29.91 1013 10 16 0.00 0.00
5:56 pm 17:56 Sunny 91 32.8 69 20.6 49 49 SSE 12 19 29.89 1012 10 16 0.00 0.00
6:56 pm 18:56 Sunny 89 31.7 71 21.7 55 55 SE 10 17 29.88 1012 10 16 0.00 0.00
7:56 pm 19:56 Sunny 86 30 71 21.7 61 61 SSE 8 13 29.88 1012 10 16 0.00 0.00
8:56 pm 20:56 Sunny 79 26.1 70 21.1 74 74 SSE 8 13 29.88 1012 10 16 0.00 0.00
9:56 pm 21:56 Clear 79 26.1 68 20 69 69 SSE 9 15 29.89 1012 10 16 0.00 0.00
10:56 pm 22:56 Clear 75 23.9 66 18.9 74 74 S 8 13 29.90 1013 10 16 0.00 0.00
11:56 pm 23:56 Clear 74 23.3 65 18.3 74 74 undefined N/A 29.89 1012 10 16 0.00 0.00

Powered by AerisWeather